Date String (YYYY-MM-DD hh:mm:ss) UTC,Instrument flags,absolute air pressure of the measurement (hPa),sample flow rate (lpm),inlet stack bypass flow (lpm),air temperature of the measurement (°C),ambient temperature measured by the external sensor (°C),aerosol sample conditioner tube jacket temperature (°C),OPC LED temperature (°C),internal box temperature (°C),relative humidity of the measurement (%),span deviation,mass concentration of particles derived from Lorenz-Mie calculation of OPC scattering (μg/m³),mass concentration of particles derived from Lorenz-Mie calculation of OPC scattering (μg/m³),mass concentration of particles derived from Lorenz-Mie calculation of OPC scattering (μg/m³)
DateTimeUTC,F1_M11,P_M11,Q1_M11,Q2_M11,T1_M11,T2_M11,T3_M11,T4_M11,T5_M11,U1_M11,ZSPAN_M11,X0_M11,X2_M11,X1_M11
2024-04-27 04:00:00,SystemResetWarning,0822.0,5.00,000.00,025.2,024.3,000.0,033.8,026.9,024.1,0000.0,0003.64,0001.62,0000.75
2024-04-27 04:01:00,SystemResetWarning,0822.0,5.00,000.00,025.2,024.3,000.0,033.8,026.9,024.1,0000.0,0003.88,0001.67,0000.75
2024-04-27 04:02:00,SystemResetWarning,0821.9,4.99,000.00,025.2,024.3,000.0,033.7,026.9,024.0,0000.0,0004.08,0001.71,0000.74
2024-04-27 04:03:00,SystemResetWarning,0821.9,4.99,000.00,025.1,024.3,000.0,033.7,026.8,024.0,0000.0,0004.29,0001.72,0000.72
2024-04-27 04:04:00,SystemResetWarning,0821.9,5.00,000.00,025.1,024.2,000.0,033.7,026.8,023.9,0000.0,0004.30,0001.67,0000.69
2024-04-27 04:05:00,SystemResetWarning,0821.9,5.00,000.00,025.1,024.2,000.0,033.7,026.8,024.0,0000.0,0004.38,0001.66,0000.68
2024-04-27 04:06:00,SystemResetWarning,0822.0,5.01,000.00,025.1,024.2,000.0,033.7,026.8,024.0,0000.0,0004.36,0001.63,0000.66
2024-04-27 04:07:00,SystemResetWarning,0822.0,5.01,000.00,025.1,024.2,000.0,033.7,026.8,023.9,0000.0,0004.34,0001.63,0000.65
2024-04-27 04:08:00,SystemResetWarning,0821.9,5.00,000.00,025.1,024.2,000.0,033.6,026.8,024.0,0000.0,0004.14,0001.60,0000.64
2024-04-27 04:09:00,SystemResetWarning,0822.0,4.99,000.00,025.0,024.1,000.0,033.6,026.8,023.9,0000.0,0004.17,0001.61,0000.65
2024-04-27 04:10:00,SystemResetWarning,0821.9,5.00,000.00,025.0,024.1,000.0,033.6,026.7,024.0,0000.0,0004.48,0001.63,0000.65
2024-04-27 04:11:00,SystemResetWarning,0821.9,4.99,000.00,025.0,024.1,000.0,033.6,026.7,024.0,0000.0,0005.32,0001.66,0000.66
2024-04-27 04:12:00,SystemResetWarning,0821.8,5.00,000.00,025.0,024.1,000.0,033.6,026.7,023.9,0000.0,0005.21,0001.65,0000.65
2024-04-27 04:13:00,SystemResetWarning,0821.7,5.01,000.00,025.0,024.1,000.0,033.6,026.7,023.9,0000.0,0005.38,0001.69,0000.64
2024-04-27 04:14:00,SystemResetWarning,0821.6,5.01,000.00,025.0,024.1,000.0,033.5,026.7,023.9,0000.0,0005.40,0001.76,0000.67
2024-04-27 04:15:00,SystemResetWarning,0821.8,4.99,000.00,025.0,024.0,000.0,033.5,026.7,023.9,0000.0,0005.50,0001.80,0000.67
2024-04-27 04:16:00,SystemResetWarning,0821.8,4.99,000.00,024.9,024.0,000.0,033.5,026.7,023.8,0000.0,0005.47,0001.78,0000.66
2024-04-27 04:17:00,SystemResetWarning,0821.3,5.01,000.00,024.9,024.0,000.0,033.5,026.6,023.9,0000.0,0005.43,0001.77,0000.64
2024-04-27 04:18:00,SystemResetWarning,0821.3,5.01,000.00,024.9,024.0,000.0,033.5,026.6,023.8,0000.0,0005.24,0001.74,0000.63
2024-04-27 04:19:00,SystemResetWarning,0821.2,4.99,000.00,024.9,024.0,000.0,033.5,026.6,023.9,0000.0,0005.36,0001.74,0000.62
2024-04-27 04:20:00,SystemResetWarning,0821.2,5.00,000.00,024.9,024.0,000.0,033.5,026.6,023.9,0000.0,0005.46,0001.75,0000.62
2024-04-27 04:21:00,SystemResetWarning,0821.3,4.99,000.00,024.9,024.0,000.0,033.4,026.6,024.0,0000.0,0005.56,0001.77,0000.61
2024-04-27 04:22:00,SystemResetWarning,0821.3,5.00,000.00,024.8,023.9,000.0,033.4,026.6,024.1,0000.0,0004.36,0001.69,0000.59
2024-04-27 04:23:00,SystemResetWarning,0821.3,5.01,000.00,024.8,023.9,000.0,033.4,026.6,024.1,0000.0,0004.63,0001.72,0000.58
2024-04-27 04:24:00,SystemResetWarning,0821.3,5.01,000.00,024.8,023.9,000.0,033.4,026.5,024.2,0000.0,0004.91,0001.69,0000.59
2024-04-27 04:25:00,SystemResetWarning,0821.3,5.00,000.00,024.8,023.9,000.0,033.4,026.5,024.2,0000.0,0005.32,0001.62,0000.58
2024-04-27 04:26:00,SystemResetWarning,0821.3,5.00,000.00,024.8,023.9,000.0,033.4,026.5,024.1,0000.0,0006.54,0001.61,0000.58
2024-04-27 04:27:00,SystemResetWarning,0821.4,4.99,000.00,024.8,023.9,000.0,033.4,026.5,024.0,0000.0,0006.39,0001.59,0000.59
2024-04-27 04:28:00,SystemResetWarning,0821.6,5.00,000.00,024.8,023.9,000.0,033.4,026.5,024.1,0000.0,0006.24,0001.54,0000.59
2024-04-27 04:29:00,SystemResetWarning,0821.8,5.00,000.00,024.7,023.9,000.0,033.3,026.5,024.1,0000.0,0006.19,0001.50,0000.58
2024-04-27 04:30:00,SystemResetWarning,0821.7,5.01,000.00,024.7,023.9,000.0,033.3,026.5,024.1,0000.0,0006.14,0001.48,0000.58
2024-04-27 04:31:00,SystemResetWarning,0822.0,4.99,000.00,024.7,023.9,000.0,033.3,026.6,024.2,0000.0,0006.19,0001.44,0000.56
2024-04-27 04:32:00,SystemResetWarning,0821.9,4.99,000.00,024.7,023.9,000.0,033.3,026.6,024.3,0000.0,0006.02,0001.43,0000.54
2024-04-27 04:33:00,SystemResetWarning,0821.9,4.99,000.00,024.7,023.9,000.0,033.3,026.6,024.4,0000.0,0006.12,0001.43,0000.54
2024-04-27 04:34:00,SystemResetWarning,0821.7,5.01,000.00,024.7,024.0,000.0,033.3,026.5,024.4,0000.0,0005.91,0001.39,0000.53
2024-04-27 04:35:00,SystemResetWarning,0821.6,5.00,000.00,024.7,024.0,000.0,033.3,026.6,024.4,0000.0,0006.92,0001.34,0000.51
2024-04-27 04:36:00,SystemResetWarning,0821.4,4.99,000.00,024.7,024.0,000.0,033.3,026.6,024.4,0000.0,0006.83,0001.32,0000.49
2024-04-27 04:37:00,SystemResetWarning,0821.3,5.00,000.00,024.7,024.0,000.0,033.3,026.6,024.4,0000.0,0005.25,0001.37,0000.48
2024-04-27 04:38:00,SystemResetWarning,0821.3,5.02,000.00,024.7,024.0,000.0,033.3,026.6,024.4,0000.0,0005.01,0001.30,0000.47
2024-04-27 04:39:00,SystemResetWarning,0821.3,5.01,000.00,024.7,024.0,000.0,033.3,026.6,024.5,0000.0,0004.99,0001.29,0000.46
2024-04-27 04:40:00,SystemResetWarning,0821.3,4.99,000.00,024.7,024.0,000.0,033.3,026.6,024.5,0000.0,0004.94,0001.28,0000.46
2024-04-27 04:41:00,SystemResetWarning,0821.2,4.99,000.00,024.7,024.0,000.0,033.3,026.5,024.3,0000.0,0004.90,0001.28,0000.45
2024-04-27 04:42:00,SystemResetWarning,0821.2,5.00,000.00,024.7,023.9,000.0,033.3,026.5,024.3,0000.0,0004.59,0001.23,0000.44
2024-04-27 04:43:00,SystemResetWarning,0821.2,5.01,000.00,024.7,023.9,000.0,033.3,026.5,024.2,0000.0,0004.34,0001.12,0000.41
2024-04-27 04:44:00,SystemResetWarning,0821.2,5.01,000.00,024.7,023.9,000.0,033.3,026.5,024.2,0000.0,0004.14,0001.05,0000.40
2024-04-27 04:45:00,SystemResetWarning,0821.2,5.00,000.00,024.7,023.9,000.0,033.2,026.5,024.2,0000.0,0004.00,0001.00,0000.38
2024-04-27 04:46:00,SystemResetWarning,0821.2,4.99,000.00,024.7,023.9,000.0,033.2,026.4,024.2,0000.0,0002.29,0000.95,0000.36
2024-04-27 04:47:00,SystemResetWarning,0821.2,4.99,000.00,024.7,023.9,000.0,033.2,026.4,024.0,0000.0,0001.90,0000.86,0000.34
2024-04-27 04:48:00,SystemResetWarning,0821.2,4.99,000.00,024.7,023.8,000.0,033.2,026.4,023.9,0000.0,0001.62,0000.74,0000.31
2024-04-27 04:49:00,SystemResetWarning,0821.2,5.00,000.00,024.6,023.8,000.0,033.2,026.4,023.8,0000.0,0001.59,0000.73,0000.28
2024-04-27 04:50:00,SystemResetWarning,0821.2,5.00,000.00,024.6,023.8,000.0,033.2,026.3,023.7,0000.0,0002.02,0000.72,0000.26
2024-04-27 04:51:00,SystemResetWarning,0821.2,5.01,000.00,024.6,023.8,000.0,033.2,026.3,023.7,0000.0,0002.10,0000.66,0000.22
2024-04-27 04:52:00,SystemResetWarning,0821.2,5.00,000.00,024.6,023.7,000.0,033.2,026.3,023.8,0000.0,0003.00,0000.59,0000.20
2024-04-27 04:53:00,SystemResetWarning,0821.2,5.00,000.00,024.6,023.7,000.0,033.2,026.3,023.7,0000.0,0004.44,0000.58,0000.17
2024-04-27 04:54:00,SystemResetWarning,0821.2,5.01,000.00,024.6,023.7,000.0,033.2,026.3,023.7,0000.0,0004.41,0000.57,0000.16
2024-04-27 04:55:00,SystemResetWarning,0821.2,5.00,000.00,024.6,023.7,000.0,033.1,026.3,023.5,0000.0,0004.41,0000.56,0000.16
2024-04-27 04:56:00,SystemResetWarning,0821.2,5.00,000.00,024.5,023.7,000.0,033.1,026.3,023.5,0000.0,0004.30,0000.51,0000.15
2024-04-27 04:57:00,SystemResetWarning,0821.2,4.99,000.00,024.5,023.7,000.0,033.1,026.3,023.3,0000.0,0004.20,0000.47,0000.14
2024-04-27 04:58:00,SystemResetWarning,0821.2,4.99,000.00,024.5,023.7,000.0,033.1,026.3,023.3,0000.0,0004.23,0000.48,0000.14
2024-04-27 04:59:00,SystemResetWarning,0821.2,5.00,000.00,024.5,023.7,000.0,033.1,026.3,023.4,0000.0,0004.08,0000.44,0000.13
